Date String (YYYY-MM-DD hh:mm:ss) UTC,Instrument flags,Ambient pressure (hPa),Sample flow (lpm),Bypass flow (lpm),Sample temperature (°C),Ambient temperature (°C),ASC tube jacket temperature (°C),LED temperature (°C),Box temperature (°C),Sample RH (%),Span deviation,Mass concentration (μg/m³),Mass concentration (μg/m³),Mass concentration (μg/m³)
DateTimeUTC,F1_M11,P_M11,Q1_M11,Q2_M11,T1_M11,T2_M11,T3_M11,T4_M11,T5_M11,U1_M11,ZSPAN_M11,X0_M11,X2_M11,X1_M11
2023-05-13 19:00:00,,0836.8,5.00,0.00,28.7,27.3,00.0,36.9,30.3,20.1,0000.0,0001.17,0000.87,0000.71
2023-05-13 19:01:00,,0836.8,5.01,0.00,28.7,27.3,00.0,36.9,30.3,20.2,0000.0,0001.20,0000.88,0000.72
2023-05-13 19:02:00,,0836.8,4.99,0.00,28.7,27.4,00.0,37.0,30.3,20.6,0000.0,0001.48,0000.88,0000.72
2023-05-13 19:03:00,,0836.8,5.00,0.00,28.7,27.4,00.0,37.0,30.3,20.0,0000.0,0001.80,0000.89,0000.73
2023-05-13 19:04:00,,0836.8,5.00,0.00,28.7,27.4,00.0,37.0,30.3,20.3,0000.0,0001.84,0000.91,0000.74
2023-05-13 19:05:00,,0836.8,5.01,0.00,28.7,27.4,00.0,37.0,30.3,20.3,0000.0,0001.81,0000.89,0000.75
2023-05-13 19:06:00,,0836.8,5.00,0.00,28.7,27.4,00.0,37.0,30.4,20.2,0000.0,0001.82,0000.91,0000.76
2023-05-13 19:07:00,,0836.7,4.98,0.00,28.7,27.4,00.0,37.0,30.4,20.1,0000.0,0001.90,0000.94,0000.78
2023-05-13 19:08:00,,0836.8,5.01,0.00,28.8,27.5,00.0,37.0,30.4,20.4,0000.0,0001.90,0000.95,0000.79
2023-05-13 19:09:00,,0836.8,5.01,0.00,28.8,27.5,00.0,37.0,30.4,20.4,0000.0,0001.87,0000.94,0000.79
2023-05-13 19:10:00,,0836.8,4.99,0.00,28.8,27.5,00.0,37.0,30.4,20.8,0000.0,0001.84,0000.94,0000.80
2023-05-13 19:11:00,,0836.8,4.99,0.00,28.8,27.5,00.0,37.1,30.4,20.9,0000.0,0001.85,0000.94,0000.80
2023-05-13 19:12:00,,0836.8,5.00,0.00,28.8,27.5,00.0,37.1,30.4,20.5,0000.0,0001.88,0000.95,0000.79
2023-05-13 19:13:00,,0836.8,5.01,0.00,28.8,27.5,00.0,37.1,30.4,20.3,0000.0,0001.62,0000.97,0000.81
2023-05-13 19:14:00,,0836.9,5.01,0.00,28.8,27.5,00.0,37.1,30.5,20.6,0000.0,0001.38,0000.99,0000.81
2023-05-13 19:15:00,,0836.9,4.99,0.00,28.8,27.5,00.0,37.1,30.5,20.3,0000.0,0001.34,0000.97,0000.81
2023-05-13 19:16:00,,0836.9,5.00,0.00,28.8,27.5,00.0,37.1,30.5,20.4,0000.0,0001.38,0000.98,0000.81
2023-05-13 19:17:00,,0836.8,5.02,0.00,28.9,27.5,00.0,37.1,30.5,20.4,0000.0,0001.44,0000.98,0000.80
2023-05-13 19:18:00,,0836.9,5.00,0.00,28.9,27.6,00.0,37.1,30.5,20.2,0000.0,0001.40,0000.99,0000.81
2023-05-13 19:19:00,,0836.9,4.98,0.00,28.9,27.6,00.0,37.2,30.5,20.7,0000.0,0001.42,0000.99,0000.80
2023-05-13 19:20:00,,0836.9,5.01,0.00,28.9,27.6,00.0,37.2,30.5,20.4,0000.0,0001.37,0000.97,0000.79
2023-05-13 19:21:00,,0836.9,5.01,0.00,28.9,27.6,00.0,37.2,30.5,20.3,0000.0,0001.40,0000.98,0000.78
2023-05-13 19:22:00,,0837.0,5.01,0.00,28.9,27.6,00.0,37.2,30.5,20.0,0000.0,0001.37,0000.98,0000.78
2023-05-13 19:23:00,,0837.0,4.99,0.00,28.9,27.6,00.0,37.2,30.5,19.9,0000.0,0001.35,0000.96,0000.78
2023-05-13 19:24:00,,0837.0,5.01,0.00,28.9,27.6,00.0,37.2,30.6,19.9,0000.0,0001.30,0000.94,0000.77
2023-05-13 19:25:00,,0837.0,5.01,0.00,29.0,27.7,00.0,37.2,30.6,20.4,0000.0,0001.23,0000.91,0000.77
2023-05-13 19:26:00,,0837.0,5.00,0.00,29.0,27.7,00.0,37.2,30.6,20.2,0000.0,0001.25,0000.93,0000.77
2023-05-13 19:27:00,,0837.0,4.98,0.00,29.0,27.7,00.0,37.3,30.6,20.2,0000.0,0001.25,0000.94,0000.78
2023-05-13 19:28:00,,0836.9,5.01,0.00,29.0,27.7,00.0,37.3,30.6,20.0,0000.0,0001.21,0000.96,0000.79
2023-05-13 19:29:00,,0836.9,5.01,0.00,29.0,27.7,00.0,37.3,30.6,20.0,0000.0,0001.25,0000.94,0000.78
2023-05-13 19:30:00,,0837.0,4.99,0.00,29.0,27.8,00.0,37.3,30.6,20.2,0000.0,0001.29,0000.94,0000.78
2023-05-13 19:31:00,,0837.0,5.00,0.00,29.0,27.8,00.0,37.3,30.7,20.0,0000.0,0001.35,0000.96,0000.79
2023-05-13 19:32:00,,0837.0,5.01,0.00,29.0,27.7,00.0,37.3,30.7,20.1,0000.0,0001.45,0000.99,0000.80
2023-05-13 19:33:00,,0837.0,4.99,0.00,29.0,27.7,00.0,37.3,30.7,20.2,0000.0,0001.51,0000.99,0000.80
2023-05-13 19:34:00,,0837.0,4.99,0.00,29.1,27.8,00.0,37.3,30.7,20.2,0000.0,0001.47,0000.98,0000.80
2023-05-13 19:35:00,,0837.0,5.01,0.00,29.1,27.8,00.0,37.4,30.7,19.7,0000.0,0001.48,0000.98,0000.80
2023-05-13 19:36:00,,0836.9,4.99,0.00,29.1,27.8,00.0,37.4,30.7,19.7,0000.0,0001.49,0000.98,0000.79
2023-05-13 19:37:00,,0837.0,5.00,0.00,29.1,27.8,00.0,37.4,30.7,20.0,0000.0,0001.46,0000.96,0000.79
2023-05-13 19:38:00,,0836.9,5.01,0.00,29.1,27.8,00.0,37.4,30.7,20.0,0000.0,0001.44,0000.95,0000.78
2023-05-13 19:39:00,,0837.0,5.00,0.00,29.1,27.8,00.0,37.4,30.7,20.4,0000.0,0001.46,0000.94,0000.78
2023-05-13 19:40:00,,0836.9,5.00,0.00,29.1,27.8,00.0,37.4,30.7,19.7,0000.0,0001.45,0000.97,0000.79
2023-05-13 19:41:00,,0836.9,5.00,0.00,29.1,27.8,00.0,37.4,30.7,19.7,0000.0,0001.42,0000.98,0000.79
2023-05-13 19:42:00,,0836.9,5.00,0.00,29.2,27.8,00.0,37.4,30.7,19.7,0000.0,0001.43,0000.98,0000.80
2023-05-13 19:43:00,,0837.0,4.99,0.00,29.2,27.9,00.0,37.4,30.8,19.9,0000.0,0001.48,0000.98,0000.80
2023-05-13 19:44:00,,0836.9,5.00,0.00,29.2,27.9,00.0,37.5,30.8,19.6,0000.0,0001.43,0000.97,0000.80
2023-05-13 19:45:00,,0836.9,4.99,0.00,29.2,27.9,00.0,37.5,30.8,19.4,0000.0,0001.52,0001.01,0000.82
2023-05-13 19:46:00,,0836.9,5.00,0.00,29.2,27.9,00.0,37.5,30.8,19.6,0000.0,0001.58,0001.04,0000.83
2023-05-13 19:47:00,,0836.9,5.02,0.00,29.2,27.9,00.0,37.5,30.8,20.2,0000.0,0001.63,0001.06,0000.84
2023-05-13 19:48:00,,0836.9,5.00,0.00,29.2,27.9,00.0,37.5,30.8,19.8,0000.0,0001.66,0001.08,0000.84
2023-05-13 19:49:00,,0836.9,4.99,0.00,29.2,27.9,00.0,37.5,30.8,19.6,0000.0,0001.66,0001.07,0000.83
2023-05-13 19:50:00,,0837.0,5.00,0.00,29.2,27.9,00.0,37.5,30.8,19.9,0000.0,0001.59,0001.04,0000.82
2023-05-13 19:51:00,,0837.0,5.01,0.00,29.3,28.0,00.0,37.5,30.9,20.2,0000.0,0001.52,0001.01,0000.82
2023-05-13 19:52:00,,0837.0,5.01,0.00,29.3,28.0,00.0,37.5,30.9,19.7,0000.0,0001.49,0000.99,0000.81
2023-05-13 19:53:00,,0837.1,5.00,0.00,29.3,28.0,00.0,37.6,30.9,19.9,0000.0,0001.49,0000.99,0000.80
2023-05-13 19:54:00,,0837.0,4.99,0.00,29.3,28.0,00.0,37.6,30.9,20.0,0000.0,0001.86,0000.94,0000.79
2023-05-13 19:55:00,,0837.0,5.00,0.00,29.3,28.0,00.0,37.6,30.9,19.9,0000.0,0001.91,0000.95,0000.78
2023-05-13 19:56:00,,0837.0,5.01,0.00,29.3,28.0,00.0,37.6,30.9,20.0,0000.0,0001.86,0000.93,0000.77
2023-05-13 19:57:00,,0837.0,5.00,0.00,29.3,28.0,00.0,37.6,30.9,20.0,0000.0,0001.78,0000.89,0000.75
2023-05-13 19:58:00,,0837.1,4.99,0.00,29.3,28.0,00.0,37.6,30.9,20.5,0000.0,0001.74,0000.87,0000.75
2023-05-13 19:59:00,,0837.1,4.99,0.00,29.3,28.0,00.0,37.6,30.9,20.1,0000.0,0002.09,0000.87,0000.74
